OBJECT E

基本信息
目录编号:
64052
目录名称:
OBJECT E
国际标识:
2025-103E
轨道中心:
EARTH
物体状态:
在轨
发射日期:
2025-05-17 UTC
国别:
中国 (CN)
轨道信息
数据来源: 国际轨道数据
星历时间: 2026-09-04T15:12:22+0800
半长轴: 6867.978km
偏心率: 0.0001506
轨道倾角: 97.368°
近地点辐角: 224.319°
升交点赤经: 318.499°
平近点角: 135.793°
近地点: 488.806km
远地点: 490.876km
周期: 94.407分钟
每日圈数: 15.253148
详细信息
发射场:
JSC
轨道高度:
LEO
数据来源:
AOE Working Group
参考系:
TEME
时间系统:
UTC
历元类型:
SGP4
2D轨道图
3D轨道图
轨道高度分析图
轨道倾角分析图
轨道综合分析图
查看轨道综合分析图